User: anonymous   Login
Location: Columbia
(38.9520°N, 92.3340°W)
Time: 13:20:52
(UTC-05:00)
Language:

Iridium 22 - Orbit

View from above orbital plane
View from above orbital plane
View from above satellite
View from above satellite

Ground track
Ground track

The orbit data is extracted from the following two-line orbital elements,

1 24907U 97043E   17080.63214060 -.00000056 +00000-0 -27070-4 0  9996
2 24907 086.3933 292.6975 0001938 082.8781 277.2635 14.34216683025288
Epoch (UTC): 21 March 2017 15:10:16
Eccentricity: 0.0001938
inclination: 86.3933°
perigee height: 776 km
apogee height: 779 km
right ascension of ascending node: 292.6975°
argument of perigee: 82.8781°
revolutions per day: 14.34216683
mean anomaly at epoch: 277.2635°
orbit number at epoch: 2528

The dashed part of the orbit path shows where the satellite is in the earth's shadow,  

DLR